Location: Unspecified
(35.7250°N, 0.0000°E)
Time: 05:42:18
(UTC+00:00)

Explorer 11/Cluster Stage 4 - All Passes

Search period start: 20 June 2019 00:00
Search period end: 30 June 2019 00:00
Orbit: 467 x 1260 km, 28.8° (Epoch: 19 June)

Date Brightness Start Highest point End Pass type
(mag) Time Alt. Az. Time Alt. Az. Time Alt. Az.
20 Jun - 15:14:12 10° SW 15:17:43 27° SSE 15:21:51 10° ESE daylight
20 Jun - 17:01:22 10° WSW 17:05:43 38° S 17:11:06 10° ESE daylight
20 Jun - 18:49:17 10° WSW 18:54:02 30° SSW 18:59:44 10° SE daylight
20 Jun - 20:38:53 10° WSW 20:42:27 15° SSW 20:46:21 10° S visible
21 Jun - 13:18:46 10° SSE 13:19:36 11° SSE 13:20:26 10° SE daylight
21 Jun - 15:03:43 10° SW 15:07:10 28° SSE 15:11:10 10° ESE daylight
21 Jun - 16:50:59 10° WSW 16:55:08 36° S 17:00:13 10° ESE daylight
21 Jun - 18:39:01 10° WSW 18:43:23 26° SSW 18:48:36 10° SE daylight
21 Jun - 20:29:21 10° SW 20:31:44 12° SSW 20:34:17 10° S visible
22 Jun - 13:07:31 10° S 13:09:00 12° SSE 13:10:33 10° SE daylight
22 Jun - 14:53:15 10° SW 14:56:38 28° S 15:00:30 10° ESE daylight
22 Jun - 16:40:38 10° WSW 16:44:35 34° S 16:49:21 10° ESE daylight
22 Jun - 18:28:49 10° WSW 18:32:46 22° SSW 18:37:24 10° SE daylight
23 Jun - 12:56:32 10° SSW 12:58:27 14° SSE 13:00:24 10° SE daylight
23 Jun - 14:42:48 10° SW 14:46:06 29° S 14:49:51 10° ESE daylight
23 Jun - 16:30:18 10° WSW 16:34:02 31° S 16:38:28 10° SE daylight
23 Jun - 18:18:42 10° WSW 18:22:09 19° SSW 18:26:07 10° SSE daylight
24 Jun - 12:45:41 10° SSW 12:47:54 15° SSE 12:50:10 10° SE daylight
24 Jun - 14:32:21 10° WSW 14:35:35 29° S 14:39:12 10° ESE daylight
24 Jun - 16:20:00 10° WSW 16:23:29 27° S 16:27:35 10° SE daylight
24 Jun - 18:08:44 10° SW 18:11:33 15° SSW 18:14:42 10° SSE daylight
25 Jun - 12:34:53 10° SSW 12:37:22 17° SSE 12:39:52 10° ESE daylight
25 Jun - 14:21:53 10° WSW 14:25:06 29° S 14:28:34 10° ESE daylight
25 Jun - 16:09:43 10° WSW 16:12:58 24° S 16:16:41 10° SE daylight
25 Jun - 17:59:05 10° SW 18:00:59 12° SSW 18:03:01 10° S daylight
26 Jun - 12:24:07 10° SW 12:26:51 19° SSE 12:29:32 10° ESE daylight
26 Jun - 14:11:27 10° WSW 14:14:36 28° S 14:17:57 10° ESE daylight
26 Jun - 15:59:28 10° WSW 16:02:27 21° S 16:05:46 10° SE daylight
27 Jun - 12:13:24 10° SW 12:16:21 22° S 12:19:11 10° ESE daylight
27 Jun - 14:01:00 10° WSW 14:04:07 27° S 14:07:22 10° ESE daylight
27 Jun - 15:49:16 10° WSW 15:51:55 18° SSW 15:54:49 10° SSE daylight
28 Jun - 10:16:18 10° S 10:18:01 12° SSE 10:19:39 10° SE daylight
28 Jun - 12:02:41 10° SW 12:05:51 24° S 12:08:50 10° ESE daylight
28 Jun - 13:50:33 10° WSW 13:53:38 26° S 13:56:46 10° SE daylight
28 Jun - 15:39:09 10° SW 15:41:24 15° SSW 15:43:47 10° SSE daylight
29 Jun - 10:04:53 10° SSW 10:07:29 15° SSE 10:09:52 10° SE daylight
29 Jun - 11:51:58 10° SW 11:55:21 26° S 11:58:28 10° ESE daylight
29 Jun - 13:40:05 10° WSW 13:43:09 25° S 13:46:11 10° SE daylight
29 Jun - 15:29:10 10° SW 15:30:52 13° SSW 15:32:37 10° S daylight
